Location: Newark
(27.9675°N, 86.8869°E)
Time: 00:58:19
(UTC+00:00)

A-11 Canister half - Pass Details

Date: 24 October 2019
Orbit: 1527 x 1682 km, 47.3° (Epoch: 12 November)

Event Time Altitude Azimuth Distance (km) Brightness Sun altitude
Exits shadow 20:34:38 13° 145° (SE) 3,510 10.9 -49.8°
Drops below altitude 10° 20:35:28 10° 144° (SE) 3,771 11.1 -49.6°
Sets 20:38:36 0° 142° (SE) 4,775 11.8 -48.9°
